Slidell, LA

9:05 AM CDT on August 27, 2016 (GMT -0500)
Slidell

Weather History for KASD - July, 2013

Change the Weather History Date:

Saturday, July 13, 2013

  Actual Average (KNEW) Record (KNEW)
Temperature  
Mean Temperature 80 °F 83 °F  
Max Temperature 91 °F 91 °F 98 °F (1991)
Min Temperature 71 °F 75 °F 67 °F (1972)
Degree Days  
Heating Degree Days 0 0  
Month to date heating degree days 0  
Since 1 June heating degree days 0  
Since 1 July heating degree days 0  
Cooling Degree Days 16 18  
Month to date cooling degree days 234  
Year to date cooling degree days 1348  
Since 1 June cooling degree days 729  
Growing Degree Days 30 (Base 50)    
Moisture  
Dew Point 73 °F    
Average Humidity 86    
Maximum Humidity 100    
Minimum Humidity 61    
Precipitation  
Precipitation 1.14 in 0.19 in 1.62 in (1993)
Month to date precipitation 2.74  
Year to date precipitation 35.04  
Snow  
Snow 0.00 in - - ()
Month to date snowfall  
Since 1 June snowfall  
Since 1 July snowfall  
Snow Depth -    
Sea Level Pressure  
Sea Level Pressure 29.90 in    
Wind  
Wind Speed 4 mph (NE)    
Max Wind Speed 23 mph    
Max Gust Speed 30 mph    
Visibility 8 miles    
Events Fog , Rain , Thunderstorm    
T = Trace of Precipitation, MM = Missing Value Source: NWS Daily Summary

Daily Weather History Graph

Daily Weather History Graph

Search for Another Location

Airport or City:

Trip Planner

Search our weather history database for the weather conditions in past years. The results will help you decide how hot, cold, wet, or windy it might be!

Date:

Astronomy

Jul. 13, 2013 Rise Set
Actual Time 6:06 AM CDT 8:03 PM CDT
Civil Twilight 5:39 AM CDT 8:30 PM CDT
Nautical Twilight 5:06 AM CDT 9:02 PM CDT
Astronomical Twilight 4:31 AM CDT 9:37 PM CDT
Moon 10:57 AM CDT (7/13) 11:11 PM CDT (7/13)
Length of Visible Light 14h 50m
Length of Day
13h 56m
Waxing Crescent, 26% of the Moon is Illuminated
Jul 13
Waxing Crescent
Jul 15
First Quarter
Jul 22
Full
Jul 29
Last Quarter
Aug 6
New

Hourly Weather History & Observations

Time (CDT) Temp. Heat Index Dew Point Humidity Pressure Visibility Wind Dir Wind Speed Gust Speed Precip Events Conditions
12:53 AM 73.9 °F - 72.0 °F 93% 29.90 in 10.0 mi Calm Calm - N/A   Clear
1:53 AM 73.0 °F - 71.1 °F 93% 29.90 in 10.0 mi Calm Calm - N/A   Clear
2:53 AM 73.0 °F - 71.1 °F 93% 29.90 in 10.0 mi Calm Calm - N/A   Clear
3:53 AM 73.0 °F - 71.1 °F 93% 29.89 in 10.0 mi Calm Calm - N/A   Clear
4:53 AM 72.0 °F - 72.0 °F 100% 29.88 in 9.0 mi Calm Calm - N/A   Clear
5:53 AM 72.0 °F - 71.1 °F 97% 29.89 in 7.0 mi Calm Calm - N/A   Clear
6:53 AM 73.0 °F - 72.0 °F 96% 29.91 in 6.0 mi Calm Calm - N/A   Clear
7:53 AM 77.0 °F - 73.0 °F 88% 29.93 in 9.0 mi NNE 4.6 mph - N/A   Clear
8:53 AM 81.0 °F 85.8 °F 73.0 °F 77% 29.93 in 10.0 mi NNE 5.8 mph - N/A   Clear
9:53 AM 82.9 °F 90.2 °F 75.0 °F 77% 29.93 in 10.0 mi Calm Calm - N/A   Clear
10:53 AM 86.0 °F 93.8 °F 73.9 °F 67% 29.92 in 10.0 mi East 4.6 mph - N/A   Clear
11:53 AM 90.0 °F 100.2 °F 75.0 °F 61% 29.93 in 10.0 mi North 4.6 mph - N/A   Mostly Cloudy
12:53 PM 89.1 °F 98.0 °F 73.9 °F 61% 29.91 in 10.0 mi NNE 4.6 mph - N/A   Mostly Cloudy
1:48 PM 89.6 °F 102.2 °F 77.0 °F 66% 29.90 in 10.0 mi Variable 3.5 mph - N/A Thunderstorm Mostly Cloudy
1:53 PM 89.1 °F 101.4 °F 77.0 °F 67% 29.90 in 10.0 mi WSW 6.9 mph - N/A Thunderstorm Mostly Cloudy
2:25 PM 89.6 °F 99.8 °F 75.2 °F 62% 29.88 in 10.0 mi WSW 6.9 mph - N/A   Overcast
2:51 PM 87.8 °F 97.6 °F 75.2 °F 66% 29.87 in 10.0 mi South 9.2 mph - N/A Thunderstorm Thunderstorm
2:53 PM 86.0 °F 96.9 °F 77.0 °F 74% 29.88 in 9.0 mi South 15.0 mph 18.4 mph N/A Thunderstorm Thunderstorm
3:03 PM 80.6 °F 86.2 °F 75.2 °F 84% 29.88 in 1.8 mi SSE 11.5 mph - 0.14 in Rain , Thunderstorm Heavy Thunderstorms and Rain
3:21 PM 82.4 °F 92.4 °F 78.8 °F 89% 29.86 in 2.5 mi SE 6.9 mph - 0.27 in Rain , Thunderstorm Light Rain
3:28 PM 82.4 °F 92.4 °F 78.8 °F 89% 29.87 in 6.0 mi East 3.5 mph - 0.27 in Rain , Thunderstorm Light Rain
3:53 PM 82.0 °F 92.8 °F 80.1 °F 94% 29.88 in 6.0 mi East 8.1 mph - 0.27 in Thunderstorm Overcast
4:14 PM 75.2 °F - 71.6 °F 89% 29.90 in 1.8 mi North 19.6 mph 27.6 mph 0.10 in Rain , Thunderstorm Heavy Thunderstorms and Rain
4:19 PM 73.4 °F - 71.6 °F 94% 29.93 in 0.5 mi North 23.0 mph 29.9 mph 0.29 in Fog , Rain , Thunderstorm Heavy Thunderstorms and Rain
4:26 PM 71.6 °F - 71.6 °F 100% 29.93 in 0.2 mi North 11.5 mph 29.9 mph 0.62 in Fog , Rain , Thunderstorm Heavy Thunderstorms and Rain
4:46 PM 73.4 °F - 71.6 °F 94% 29.88 in 2.0 mi NNE 9.2 mph - 0.87 in Rain , Thunderstorm Light Thunderstorms and Rain
4:53 PM 71.1 °F - 70.0 °F 96% 29.89 in 6.0 mi North 4.6 mph - 0.87 in Rain , Thunderstorm Light Thunderstorms and Rain
5:11 PM 71.6 °F - 69.8 °F 94% 29.88 in 8.0 mi NNE 4.6 mph - 0.00 in Thunderstorm Scattered Clouds
5:32 PM 73.4 °F - 71.6 °F 94% 29.89 in 8.0 mi NE 3.5 mph - 0.00 in   Clear
5:53 PM 75.0 °F - 72.0 °F 90% 29.89 in 8.0 mi Variable 4.6 mph - 0.00 in   Clear
6:53 PM 73.0 °F - 69.1 °F 87% 29.90 in - ENE 5.8 mph - N/A   Clear
7:53 PM 73.0 °F - 70.0 °F 90% 29.89 in 10.0 mi West 4.6 mph - N/A   Clear
8:20 PM 73.4 °F - 69.8 °F 88% 29.88 in 10.0 mi North 4.6 mph - N/A   Partly Cloudy
8:53 PM 73.0 °F - 70.0 °F 90% 29.88 in 10.0 mi Calm Calm - N/A   Partly Cloudy
9:53 PM 73.0 °F - 72.0 °F 96% 29.92 in 9.0 mi NE 5.8 mph - N/A   Clear
10:53 PM 73.0 °F - 72.0 °F 96% 29.94 in 8.0 mi ENE 3.5 mph - N/A   Clear
11:53 PM 73.0 °F - 72.0 °F 96% 29.95 in - Calm Calm - N/A   Clear